Hamburg, Germany

6:33 AM CET on March 24, 2017 (GMT +0100)
Hamburg

Weather History for 10147 - April, 2013

Change the Weather History Date:

Saturday, April 20, 2013

  Actual Average Record
Temperature  
Mean Temperature 43 °F -  
Max Temperature 54 °F 60 °F - ()
Min Temperature 32 °F 42 °F - ()
Degree Days  
Heating Degree Days 22    
Moisture  
Dew Point 31 °F    
Average Humidity 62    
Maximum Humidity 93    
Minimum Humidity 21    
Precipitation  
Precipitation 0.00 in 0.07 in - ()
Sea Level Pressure  
Sea Level Pressure 30.42 in    
Wind  
Wind Speed 6 mph ()    
Max Wind Speed 12 mph    
Max Gust Speed 18 mph    
Visibility 13.3 miles    
Events Fog    
T = Trace of Precipitation, MM = Missing Value Source: Averaged Metar Reports

Daily Weather History Graph

Daily Weather History Graph

Search for Another Location

Airport or City:

Trip Planner

Search our weather history database for the weather conditions in past years. The results will help you decide how hot, cold, wet, or windy it might be!

Date:

Astronomy

Apr. 20, 2013 Rise Set
Actual Time 6:08 AM CEST 8:30 PM CEST
Civil Twilight 5:30 AM CEST 9:09 PM CEST
Nautical Twilight 4:41 AM CEST 9:58 PM CEST
Astronomical Twilight 3:43 AM CEST 10:57 PM CEST
Moon 2:11 PM CEST (4/20) 3:38 AM CEST (4/20)
Length of Visible Light 15h 39m
Length of Day
14h 22m
Waxing Gibbous, 68% of the Moon is Illuminated
Apr 20
Waxing Gibbous
Apr 25
Full
May 2
Last Quarter
May 10
New
May 18
First Quarter

Hourly Weather History & Observations

Time (CEST) Temp. Windchill Dew Point Humidity Pressure Visibility Wind Dir Wind Speed Gust Speed Precip Events Conditions
12:00 AM 39 °F - 36 °F 84% 30.37 in 19 mi WNW 6.7 mph - -   Clear
12:20 AM 39.2 °F 34.2 °F 35.6 °F 87% 30.36 in - WNW 6.9 mph - N/A   Clear
12:50 AM 37.4 °F 32.1 °F 35.6 °F 93% 30.36 in - WNW 6.9 mph - N/A   Clear
1:00 AM 38 °F - 35 °F 86% 30.38 in 19 mi WNW 6.7 mph - -   Clear
1:20 AM 37.4 °F 32.1 °F 35.6 °F 93% 30.39 in - WNW 6.9 mph - N/A   Clear
1:50 AM 37.4 °F 33.8 °F 35.6 °F 93% 30.39 in - WNW 4.6 mph - N/A   Clear
2:00 AM 37 °F - 35 °F 88% 30.40 in 19 mi WNW 4.5 mph - -   Clear
2:20 AM 37.4 °F 34.9 °F 33.8 °F 87% 30.39 in - WNW 3.5 mph - N/A   Clear
2:50 AM 35.6 °F 31.7 °F 33.8 °F 93% 30.39 in - NW 4.6 mph - N/A   Clear
3:00 AM 36 °F - 34 °F 88% 30.41 in 19 mi NW 4.5 mph - -  
3:20 AM 35.6 °F 32.8 °F 33.8 °F 93% 30.42 in - WNW 3.5 mph - N/A   Clear
3:50 AM 35.6 °F - 33.8 °F 93% 30.39 in - West 2.3 mph - N/A   Clear
4:00 AM 35 °F - 34 °F 92% 30.42 in 19 mi West 2.2 mph - -  
4:20 AM 35.6 °F - 33.8 °F 93% 30.42 in - WNW 2.3 mph - N/A   Clear
4:50 AM 33.8 °F - 32.0 °F 93% 30.42 in - West 2.3 mph - N/A   Clear
5:20 AM 33.8 °F 30.8 °F 32.0 °F 93% 30.42 in - NW 3.5 mph - N/A   Clear
5:50 AM 33.8 °F 30.8 °F 32.0 °F 93% 30.42 in 6.2 mi NW 3.5 mph - N/A Fog Shallow Fog
6:00 AM 34 °F - 32 °F 91% 30.44 in 19 mi NW 2.2 mph - - Fog Patches of Fog
6:20 AM 33.8 °F 30.8 °F 32.0 °F 93% 30.42 in 6.2 mi Variable 3.5 mph - N/A Fog Shallow Fog
6:50 AM 33.8 °F 30.8 °F 32.0 °F 93% 30.45 in 6.2 mi WNW 3.5 mph - N/A Fog Shallow Fog
7:00 AM 34 °F - 32 °F 91% 30.45 in 19 mi WNW 4.5 mph - - Fog Patches of Fog
7:20 AM 35.6 °F 30.7 °F 33.8 °F 93% 30.45 in - NW 5.8 mph - N/A   Clear
7:50 AM 37.4 °F 32.1 °F 35.6 °F 93% 30.45 in - NW 6.9 mph - N/A   Clear
8:00 AM 38 °F - 35 °F 84% 30.48 in 19 mi NW 6.7 mph - -   Clear
8:20 AM 39.2 °F 32.5 °F 35.6 °F 87% 30.45 in 6.2 mi NNW 10.4 mph - N/A   Partly Cloudy
8:50 AM 41.0 °F 34.3 °F 35.6 °F 81% 30.45 in 6.2 mi NNW 11.5 mph - N/A   Partly Cloudy
9:00 AM 41 °F - 35 °F 73% 30.48 in 19 mi NNW 11.2 mph - -   Scattered Clouds
9:20 AM 42.8 °F 36.6 °F 35.6 °F 76% 30.45 in 6.2 mi NNW 11.5 mph - N/A   Partly Cloudy
9:50 AM 42.8 °F 37.0 °F 33.8 °F 70% 30.48 in 6.2 mi NNW 10.4 mph - N/A   Partly Cloudy
10:00 AM 42 °F - 33 °F 61% 30.48 in 19 mi NNW 11.2 mph - -   Scattered Clouds
10:20 AM 44.6 °F 39.2 °F 33.8 °F 66% 30.48 in 6.2 mi NNW 10.4 mph - N/A   Partly Cloudy
10:50 AM 46.4 °F 41.9 °F 32.0 °F 57% 30.48 in 6.2 mi NNW 9.2 mph - N/A   Scattered Clouds
11:20 AM 46.4 °F 41.5 °F 30.2 °F 53% 30.48 in 6.2 mi North 10.4 mph - N/A   Scattered Clouds
11:50 AM 48.2 °F - 30.2 °F 50% 30.48 in 6.2 mi NNW 8.1 mph - N/A   Partly Cloudy
12:00 PM 47 °F - 30 °F 40% 30.49 in 19 mi NNW 8.9 mph - -   Scattered Clouds
12:20 PM 48.2 °F - 30.2 °F 50% 30.45 in 6.2 mi North 6.9 mph - N/A   Partly Cloudy
12:50 PM 50.0 °F - 32.0 °F 50% 30.45 in 6.2 mi North 6.9 mph 18.4 mph N/A   Partly Cloudy
1:00 PM 50 °F - 32 °F 37% 30.48 in 19 mi North 8.9 mph - -   Scattered Clouds
1:20 PM 50.0 °F - 28.4 °F 43% 30.45 in 6.2 mi Variable 5.8 mph - N/A   Partly Cloudy
1:50 PM 50.0 °F - 28.4 °F 43% 30.45 in 6.2 mi NE 6.9 mph - N/A   Partly Cloudy
2:00 PM 49 °F - 27 °F 30% 30.47 in 19 mi NE 6.7 mph - -   Scattered Clouds
2:20 PM 50.0 °F - 28.4 °F 43% 30.45 in 6.2 mi North 5.8 mph - N/A   Partly Cloudy
2:50 PM 51.8 °F - 28.4 °F 41% 30.45 in - North 8.1 mph - N/A   Clear
3:00 PM 52 °F - 29 °F 28% 30.46 in 19 mi North 8.9 mph - -   Scattered Clouds
3:20 PM 51.8 °F - 26.6 °F 38% 30.42 in - Variable 3.5 mph - N/A   Clear
3:50 PM 53.6 °F - 28.4 °F 38% 30.42 in - NNE 5.8 mph - N/A   Clear
4:00 PM 53 °F - 27 °F 25% 30.44 in 19 mi NNE 6.7 mph - -   Scattered Clouds
4:20 PM 53.6 °F - 26.6 °F 35% 30.42 in - NE 8.1 mph - N/A   Clear
4:50 PM 53.6 °F - 28.4 °F 38% 30.42 in - North 4.6 mph - N/A   Clear
5:20 PM 53.6 °F - 28.4 °F 38% 30.39 in - NE 6.9 mph - N/A   Clear
5:50 PM 53.6 °F - 26.6 °F 35% 30.39 in - NNE 9.2 mph - N/A   Clear
6:00 PM 53 °F - 25 °F 21% 30.42 in 19 mi NNE 8.9 mph - -   Scattered Clouds
6:20 PM 51.8 °F - 24.8 °F 35% 30.39 in - NE 8.1 mph - N/A   Clear
6:50 PM 51.8 °F - 26.6 °F 38% 30.39 in - NNE 6.9 mph - N/A   Clear
7:00 PM 52 °F - 25 °F 23% 30.41 in 19 mi NNE 6.7 mph - -   Scattered Clouds
7:20 PM 50.0 °F - 26.6 °F 40% 30.39 in - ENE 11.5 mph - N/A   Clear
7:50 PM 50.0 °F - 24.8 °F 37% 30.39 in - ENE 11.5 mph - N/A   Clear
8:00 PM 49 °F - 25 °F 26% 30.42 in 19 mi ENE 11.2 mph - -   Clear
8:20 PM 48.2 °F - 26.6 °F 43% 30.39 in - ENE 9.2 mph - N/A   Clear
8:50 PM 46.4 °F 43.5 °F 26.6 °F 46% 30.39 in - East 5.8 mph - N/A   Clear
9:00 PM 46 °F - 26 °F 33% 30.42 in 19 mi East 6.7 mph - -   Clear
9:20 PM 46.4 °F 44.3 °F 26.6 °F 46% 30.39 in - NE 4.6 mph - N/A   Clear
9:50 PM 44.6 °F 42.2 °F 30.2 °F 57% 30.39 in - NE 4.6 mph - N/A   Clear
10:00 PM 45 °F - 29 °F 40% 30.42 in 19 mi NE 4.5 mph - -  
10:20 PM 44.6 °F 42.2 °F 30.2 °F 57% 30.39 in - NE 4.6 mph - N/A   Clear
10:50 PM 42.8 °F 40.1 °F 30.2 °F 61% 30.39 in - NE 4.6 mph - N/A   Clear
11:20 PM 41.0 °F 36.4 °F 32.0 °F 70% 30.39 in - ENE 6.9 mph - N/A   Clear
11:50 PM 41.0 °F 37.1 °F 32.0 °F 70% 30.39 in - ENE 5.8 mph - N/A   Clear